Location: Rounton
(54.4000°N, 1.3500°W)
Time: 13:37:03
(UTC+00:00)

Transit 4A - Pass Details

Date: 04 December 2021
Orbit: 864 x 981 km, 66.8° (Epoch: 20 January)

Event Time Altitude Azimuth Distance (km) Brightness Sun altitude
Rises 18:21:56 0° 173° (S) 3,458 10.9 -21.7°
Reaches altitude 10° 18:24:50 10° 160° (SSE) 2,539 10.1 -22.1°
Enters shadow 18:26:31 17° 146° (SSE) 2,110 9.5 -22.4°
Maximum altitude 18:29:23 24° 109° (ESE) 1,781 - -22.8°
Drops below altitude 10° 18:34:02 10° 58° (ENE) 2,610 - -23.5°
Sets 18:37:03 0° 45° (NE) 3,578 - -23.9°
